This is the latest recevied weather packets stored in our database for station/object KI6PPU. If no packets are shown the sender has not sent any weather packets the latest 10 day(s).
| Time | Temp. | Humidity | Pressure | Rain* | Wind** | Luminosity | Snow |
|---|---|---|---|---|---|---|---|
| 1778104508 | 21.67° C | 67% | 1021.7 hPa | 0 mm | - | 582 W/m² | - |
| 1778104203 | 21.11° C | 68% | 1021.7 hPa | 0 mm | - | 564 W/m² | - |
| 1778103901 | 20.56° C | 69% | 1021.7 hPa | 0 mm | - | 670 W/m² | - |
| 1778103598 | 20.56° C | 71% | 1021.7 hPa | 0 mm | - | 613 W/m² | - |
| 1778103296 | 20.56° C | 69% | 1021.8 hPa | 0 mm | - | 650 W/m² | - |
| 1778102992 | 20.56° C | 69% | 1021.8 hPa | 0 mm | - | 722 W/m² | - |
| 1778102689 | 20° C | 73% | 1022.1 hPa | 0 mm | - | 406 W/m² | - |
| 1778102383 | 20° C | 72% | 1022.2 hPa | 0 mm | - | 526 W/m² | - |
| 1778102080 | 20° C | 71% | 1022.2 hPa | 0 mm | - | 417 W/m² | - |
| 1778101777 | 20° C | 75% | 1022.1 hPa | 0 mm | - | 358 W/m² | - |
| 1778101473 | 19.44° C | 71% | 1022.2 hPa | 0 mm | - | 345 W/m² | - |
| 1778101171 | 20° C | 75% | 1022 hPa | 0 mm | - | 325 W/m² | - |
| 1778100867 | 19.44° C | 71% | 1022.2 hPa | 0 mm | - | 349 W/m² | - |
| 1778100563 | 18.89° C | 74% | 1022.2 hPa | 0 mm | - | 340 W/m² | - |
| 1778100261 | 19.44° C | 73% | 1022.3 hPa | 0 mm | - | 318 W/m² | - |
| 1778099958 | 19.44° C | 74% | 1022.5 hPa | 0 mm | - | 295 W/m² | - |
| 1778099655 | 20° C | 73% | 1022.5 hPa | 0 mm | - | 289 W/m² | - |
| 1778099352 | 19.44° C | 76% | 1022.7 hPa | 0 mm | - | 286 W/m² | - |
| 1778099049 | 19.44° C | 73% | 1022.5 hPa | 0 mm | - | 317 W/m² | - |
| 1778098746 | 19.44° C | 73% | 1022.7 hPa | 0 mm | - | 351 W/m² | - |
| 1778098444 | 19.44° C | 73% | 1022.6 hPa | 0 mm | - | 382 W/m² | - |
| 1778098140 | 19.44° C | 74% | 1022.6 hPa | 0 mm | - | 467 W/m² | - |
| 1778097836 | 18.89° C | 73% | 1022.7 hPa | 0 mm | - | 431 W/m² | - |
| 1778097532 | 18.89° C | 75% | 1022.6 hPa | 0 mm | - | 374 W/m² | - |
| 1778097230 | 18.89° C | 76% | 1022.7 hPa | 0 mm | - | 335 W/m² | - |
* Rain latest hour (hover to see other rain measurements)
** Current wind speed in m/s (hover to see current wind gust speed)